Regional Weather Roundup
Issued by NWS

Home | Current Version | Previous Version | Graphics & Text | Print | Product List | Glossary On
Versions: 1 2 3 4 5 6 7 8 9 10 11 12 13 14 15 16 17 18 19 20 21 22 23 24 25 26 27 28 29 30 31 32 33 34 35 36 37 38 39 40 41 42 43 44 45 46 47 48 49 50
791
ASUS45 KCYS 240810
RWRWY

WYOMING REGIONAL WEATHER ROUNDUP
NATIONAL WEATHER SERVICE CHEYENNE WY
200 AM MDT TUE APR 24 2018

NOTE:  "FAIR" INDICATES FEW OR NO CLOUDS BELOW 12,000 FEET
WITH NO SIGNIFICANT WEATHER AND/OR OBSTRUCTIONS TO VISIBILITY.

WYZ001-240900-
YELLOWSTONE NATIONAL PARK

CITY           SKY/WX    TMP DP  RH WIND       PRES   REMARKS
LK YELLOWSTONE   N/A     20  15  81 CALM      30.41R
W YELLOWSTONE  NOT AVBL

$$
WYZ002>013-054>058-071-098>099-240900-
NORTHERN WYOMING

CITY           SKY/WX    TMP DP  RH WIND       PRES   REMARKS
JACKSON        MOCLDY    32  23  69 N16       30.33R WCI  21
CODY           FAIR      31  27  85 NW5       30.47S WCI  26
GREYBULL         N/A     36  29  75 VRB5      30.44R WCI  32
WORLAND        MOCLDY    34  30  85 NE5       30.44R WCI  30
SHERIDAN       FLURRIES  34  33  96 NW10      30.49R WCI  26
BUFFALO        FLURRIES  32  30  92 N14       30.45S WCI  22
GILLETTE       LGT SNOW  32  31  96 N16       30.43R FOG     WCI  21
HULETT         CLOUDY    32  32 100 N13       30.41R WCI  22
NEWCASTLE      CLOUDY    32  28  86 NW15G25   30.37R WCI  22

$$
WYZ014>020-022>026-101>103-240900-
CENTRAL WYOMING

CITY           SKY/WX    TMP DP  RH WIND       PRES   REMARKS
BIG PINEY      CLOUDY    29  23  78 SW14      30.33R WCI  18
PINEDALE       FAIR      28  28 100 CALM      30.31S
DUBOIS         CLOUDY    27  25  93 SE15      30.36S WCI  15
LANDER         CLOUDY    32  26  78 SE8       30.41R WCI  25
RIVERTON       CLOUDY    32  24  72 NE16G24   30.41R WCI  21
CASPER         CLOUDY    32  28  85 NE14      30.42S WCI  22
DOUGLAS        CLOUDY    34  28  79 N17       30.40S WCI  23

$$
WYZ021-027>030-104>119-240900-
SOUTHERN WYOMING

CITY           SKY/WX    TMP DP  RH WIND       PRES   REMARKS
EVANSTON       FAIR      32  27  81 N9        30.28S WCI  24
KEMMERER       FAIR      30  25  80 E5        30.33R WCI  25
FORT BRIDGER   SUNNY     30  25  80 SE10      30.33R WCI  21
ROCK SPRINGS   CLOUDY    32  24  72 NE18      30.35S WCI  20
DIXON          FAIR      36  27  70 N16       30.29R WCI  26
RAWLINS        CLOUDY    30  25  81 NE16      30.35S WCI  19
SARATOGA       CLOUDY    32  27  80 N15       30.33R WCI  22
LARAMIE        CLOUDY    30  26  85 N13       30.31S WCI  20
CHEYENNE       CLOUDY    31  28  89 MISG      30.30S
TORRINGTON     CLOUDY    36  32  85 NW20G28   30.32S WCI  25
PINE BLUFFS    CLOUDY    32  32 100 N20G30    30.31R WCI  20

$$




USA.gov is the U.S. government's official web portal to all federal, state and local government web resources and services.